GEOSAT

Satellite information

Favourite Embed

Satellite Type and Status

PAYLOADIN ORBIT

Key statistics

Satellite GEOSAT at a glance.

Uptime

14834

Days in orbit

Revolutions

≈ 14.4

Per day

Orbit

SSO

Sun Synchronous Orbit

Inclination

108.1

Latest

Satellite identification and parameters

Extended collection of information and parameters for GEOSAT.

Object identification

Identified? True

Debris? False

Object name: GEOSAT

International designator: 1985-021A

Object number (NORAD): 15595

Object ID (CCSDS): 15595

Country: UNITED STATES OF AMERICA (US)

Current information (Y/N): Y

RCS size: LARGE

Orbital parameters

Period: 100.015 minutes

Inclination: 108.0555 deg

SMA: 7137.349 km

Apoapsis: 760.443 km

Periapsis: 757.984 km

RAAN: 307.7325 deg

Eccentricy: 0.0001723

Argument of periapsis: 261.0565 deg

Mean anomaly: 99.0382 deg

Mean motion: 14.39784144 rev/day

Mean motion (dot): 0.00000367 rev/day2

B* drag term: 0.0001600602 1/REarth

Two-line elements (TLE)

Creation date: Oct. 23, 2025, 2:46 a.m.

Reference frame: TEME

Reference center: EARTH

Epoch: Oct. 22, 2025, 11:12 p.m. UTC

TLE line 0: 0 GEOSAT

TLE line 1: 1 15595U 85021A 25295.96733593 .00000367 00000-0 16006-3 0 9991

TLE line 2: 2 15595 108.0555 307.7325 0001723 261.0565 99.0382 14.39784144128621

Live tracking on map

Real-time ground track for satellite GEOSAT.

In-orbit conjunctions

A list of the most updated potential collisions computed for object GEOSAT.

Target Orbit TCA Probability of collision Miss distance Type
THOR ABLESTAR DEB LEO 2025-10-25 13:07:15 0.0002169541 102.0 (m) DEBRIS
NOAA 16 DEB SSO 2025-05-15 08:16:12 0.0002817291 492.0 (m) DEBRIS
CZ-4 DEB SSO 2025-03-07 23:17:24 0.0004249297 438.0 (m) DEBRIS
TSX-5 LEO 2024-12-31 07:52:07 0.000102116 687.0 (m) PAYLOAD
COSMOS 2251 DEB LEO 2024-11-27 18:14:01 0.0004240009 800.0 (m) DEBRIS

Associated space launch

Oceanographic radar altimetry satellite designed to obtain mapping of the Earth's geoid

GEOSAT was lifted into orbit during the mission ‘Atlas E/OIS | Geosat 1’, on board a Atlas E/OIS space rocket.

The launch took place on March 13, 1985, 2 a.m. from Space Launch Complex 3W.

For more information about the launch, click the button.

Launch to space Atlas E/OIS | Geosat 1
Atlas E/OIS | Geosat 1

Agency: N/A

Status: Launch Successful

Launch date: March 13, 1985, 2 a.m. UTC

Rocket: Atlas E/OIS

Launch pad: Space Launch Complex 3W

Location: Vandenberg SFB, CA, USA

...

Latest news about this satellite

There are no fresh news available about this satellite. Check back as we update our databases every day.


Newsletter sign-up

Weekly statistics, charts and insights to help you stay on top of the space industry.